Hourly Data Report for September 26, 2017

All times are specified in Local Standard Time (LST). Add 1 hour to adjust for Daylight Saving Time where and when it is observed.

EDMUNDSTON
NEW BRUNSWICK

47°25'00.000" N
68°19'28.040" W
154.20 m
8101303
71590
ERM

Download Data

Hourly Data (September 2017)
Hourly Data Report for September 26, 2017
Temp Definition
°C
Dew Point Temp Definition
°C
Rel Hum Definition
%
Wind Dir Definition
10's deg

Wind Spd Definition
km/h
Visibility Definition
km
Stn Press Definition
kPa
Hmdx Definition


Wind Chill Definition


Weather Definition


TIME
00:00 18.1 16.6 91 27 1   99.41     LegendNANA
01:00 19.1 17.5 90 34 8   99.40     LegendNANA
02:00 17.9 16.4 91 3 1   99.38     LegendNANA
03:00 16.6 15.3 92 1 3   99.37     LegendNANA
04:00 16.5 15.5 94 23 1   99.39     LegendNANA
05:00 16.4 15.3 94 34 2   99.41     LegendNANA
06:00 16.4 15.5 94 0 1   99.45     LegendNANA
07:00 16.2 15.3 94   0   99.48     LegendNANA
08:00 18.2 17.1 94 0 1   99.50     LegendNANA
09:00 24.7 18.0 66 28 3   99.53 31   LegendNANA
10:00 26.4 17.1 57 31 12   99.53 32   LegendNANA
11:00 26.4 16.9 56 31 13   99.54 32   LegendNANA
12:00 26.4 17.2 57 29 10   99.54 32   LegendNANA
13:00 26.6 16.6 54 29 11   99.53 32   LegendNANA
14:00 28.3 16.3 48 30 14   99.52 33   LegendNANA
15:00 27.8 16.4 50 31 12   99.55 33   LegendNANA
16:00 26.8 16.9 54 33 12   99.56 32   LegendNANA
17:00 25.2 16.0 57 34 12   99.59 30   LegendNANA
18:00 22.8 14.9 61 34 11   99.65 27   LegendNANA
19:00 20.4 14.4 69 31 4   99.68     LegendNANA
20:00 19.7 13.6 68 2 6   99.75     LegendNANA
21:00 17.9 12.6 71 33 5   99.75     LegendNANA
22:00 16.4 12.7 79 26 2   99.74     LegendNANA
23:00 15.3 12.0 80 33 2   99.75     LegendNANA

Notes on Data Quality.

Legend

  • E = Estimated
  • M = Missing
  • NA = Not Available
  • ‡ = Partner data that is not subject to review by the National Climate Archives
Date modified: